{"data":{"norad_id":59095,"epoch":"2026-09-20T02:17:32.756928Z","epoch_age_seconds":193796,"freshness":"STALE","line1":"1 59095U 24041X   26263.09551802  .00000640  00000+0  32781-4 0  9992","line2":"2 59095  43.0020 292.7759 0001255 260.6901  99.3809 15.27579741144002","mean_motion":15.27579741,"eccentricity":0.0001255,"inclination_deg":43.002,"raan_deg":292.7759,"arg_perigee_deg":260.6901,"mean_anomaly_deg":99.3809,"bstar":3.2781e-5,"rev_number":14400,"period_min":94.266764696508,"perigee_km":482.18879262655,"apogee_km":483.91095053132,"semimajor_km":6861.1868715789,"source":"CELESTRAK","updated_at":"2026-09-21T09:00:34.037412Z"}}